| time (UTC) | temp F | wind direction | speed knots | gust knots | rain 1hr in | rain 24hr in | rain mn in | humidity % | barometer mb |
| 20260503211525 | 63 | 286 | 0.0 | 1.7 | 0.00 | 0.00 | 0.00 | 63 | 1009.8 |
| 20260503210027 | 63 | 323 | 0.0 | 0.0 | 0.00 | 0.00 | 0.00 | 62 | 1009.8 |
| 20260503204533 | 64 | 360 | 0.0 | 1.7 | 0.00 | 0.00 | 0.00 | 61 | 1010.0 |
| 20260503203025 | 65 | 355 | 0.0 | 7.8 | 0.00 | 0.00 | 0.00 | 61 | 1010.1 |
| 20260503201523 | 66 | 306 | 0.0 | 7.0 | 0.00 | 0.00 | 0.00 | 60 | 1010.1 |
| 20260503200026 | 68 | 333 | 0.0 | 9.6 | 0.00 | 0.00 | 0.00 | 58 | 1010.0 |
| 20260503194525 | 69 | 332 | 0.0 | 13.0 | 0.00 | 0.00 | 0.00 | 56 | 1009.9 |
| 20260503193032 | 71 | 247 | 0.0 | 5.2 | 0.00 | 0.00 | 0.00 | 53 | 1009.9 |
| 20260503191522 | 72 | 261 | 0.0 | 0.9 | 0.00 | 0.00 | 0.00 | 49 | 1009.8 |
| 20260503190024 | 73 | 327 | 0.0 | 0.9 | 0.00 | 0.00 | 0.00 | 50 | 1009.8 |
| 20260503184533 | 73 | 279 | 0.0 | 0.0 | 0.00 | 0.00 | 0.00 | 43 | 1009.8 |
| 20260503183019 | 72 | 234 | 0.0 | 0.0 | 0.00 | 0.00 | 0.00 | 51 | 1009.8 |
| 20260503181516 | 71 | 344 | 0.0 | 0.0 | 0.00 | 0.00 | 0.00 | 49 | 1009.8 |
| 20260503180023 | 71 | 313 | 0.0 | 5.2 | 0.00 | 0.00 | 0.00 | 53 | 1009.8 |
| 20260503174514 | 71 | 306 | 0.0 | 0.0 | 0.00 | 0.00 | 0.00 | 53 | 1009.9 |
| 20260503173015 | 70 | 339 | 0.0 | 4.3 | 0.00 | 0.00 | 0.00 | 52 | 1009.9 |
| 20260503171509 | 69 | 225 | 0.0 | 0.0 | 0.00 | 0.00 | 0.00 | 52 | 1009.9 |
| 20260503081551 | 53 | 99 | 0.0 | 0.0 | 0.00 | 0.00 | 0.00 | 46 | 1010.4 |
| 20260503071547 | 53 | 98 | 0.0 | 0.0 | 0.00 | 0.00 | 0.00 | 44 | 1011.2 |
| 20260503054540 | 54 | 56 | 0.0 | 0.0 | 0.00 | 0.00 | 0.00 | 46 | 1011.4 |
| 20260503053041 | 54 | 55 | 0.0 | 0.0 | 0.00 | 0.00 | 0.00 | 46 | 1011.4 |
| 20260503051538 | 54 | 51 | 0.0 | 0.0 | 0.00 | 0.00 | 0.00 | 48 | 1011.2 |
| 20260503050038 | 54 | 51 | 0.0 | 0.0 | 0.00 | 0.00 | 0.00 | 51 | 1011.2 |
| 20260503044538 | 54 | 309 | 0.0 | 0.0 | 0.00 | 0.00 | 0.00 | 54 | 1011.1 |
| 20260503043042 | 54 | 309 | 0.0 | 0.0 | 0.00 | 0.00 | 0.00 | 53 | 1010.9 |
| 20260503041537 | 55 | 309 | 0.0 | 0.0 | 0.00 | 0.00 | 0.00 | 48 | 1010.6 |
| 20260503040045 | 56 | 309 | 0.0 | 0.0 | 0.00 | 0.00 | 0.00 | 46 | 1010.4 |
| 20260503034549 | 57 | 309 | 0.0 | 0.0 | 0.00 | 0.00 | 0.00 | 48 | 1010.2 |
| 20260503033042 | 59 | 309 | 0.0 | 0.0 | 0.00 | 0.00 | 0.00 | 54 | 1010.0 |
| 20260503031540 | 61 | 309 | 0.0 | 0.0 | 0.00 | 0.00 | 0.00 | 57 | 1010.0 |
| 20260503030046 | 63 | 309 | 0.0 | 0.0 | 0.00 | 0.00 | 0.00 | 54 | 1010.0 |
| 20260503024534 | 65 | 309 | 0.0 | 0.0 | 0.00 | 0.00 | 0.00 | 53 | 1009.9 |
| 20260503023034 | 67 | 309 | 0.0 | 0.0 | 0.00 | 0.00 | 0.00 | 51 | 1009.8 |
| 20260503021541 | 68 | 309 | 0.0 | 0.0 | 0.00 | 0.00 | 0.00 | 49 | 1009.8 |
| 20260503020033 | 69 | 309 | 0.0 | 0.0 | 0.00 | 0.00 | 0.00 | 46 | 1009.8 |
| 20260503014533 | 70 | 309 | 0.0 | 0.0 | 0.00 | 0.00 | 0.00 | 47 | 1009.7 |
| 20260503013032 | 70 | 309 | 0.0 | 0.0 | 0.00 | 0.00 | 0.00 | 49 | 1009.6 |
| 20260503011534 | 71 | 296 | 0.0 | 0.0 | 0.00 | 0.00 | 0.00 | 49 | 1009.4 |
| 20260503010030 | 72 | 302 | 0.0 | 0.0 | 0.00 | 0.00 | 0.00 | 49 | 1009.5 |
| 20260503004530 | 72 | 285 | 0.0 | 0.0 | 0.00 | 0.00 | 0.00 | 47 | 1009.4 |
| 20260503003029 | 73 | 279 | 0.0 | 0.0 | 0.00 | 0.00 | 0.00 | 41 | 1009.4 |
| 20260503001527 | 75 | 311 | 0.0 | 2.6 | 0.00 | 0.00 | 0.00 | 39 | 1009.4 |
| 20260503000033 | 75 | 292 | 0.0 | 0.9 | 0.00 | 0.00 | 0.00 | 36 | 1009.2 |
| 20260502234525 | 76 | 319 | 0.0 | 0.0 | 0.00 | 0.00 | 0.00 | 30 | 1009.2 |
| 20260502233025 | 76 | 313 | 0.0 | 4.3 | 0.00 | 0.00 | 0.00 | 29 | 1009.3 |
| 20260502231525 | 76 | 285 | 0.0 | 0.0 | 0.00 | 0.00 | 0.00 | 32 | 1009.0 |
| 20260502230023 | 76 | 329 | 0.0 | 7.0 | 0.00 | 0.00 | 0.00 | 29 | 1009.2 |
| 20260502224519 | 76 | 308 | 0.0 | 0.0 | 0.00 | 0.00 | 0.00 | 30 | 1009.4 |
| 20260502223018 | 77 | 355 | 0.0 | 7.0 | 0.00 | 0.00 | 0.00 | 37 | 1009.8 |
| 20260502221515 | 78 | 290 | 0.0 | 9.6 | 0.00 | 0.00 | 0.00 | 36 | 1010.1 |
| 20260502220012 | 79 | 289 | 0.0 | 8.7 | 0.00 | 0.00 | 0.00 | 33 | 1010.1 |
| 20260502214513 | 80 | 306 | 0.0 | 7.8 | 0.00 | 0.00 | 0.00 | 30 | 1010.3 |
| 20260502213009 | 81 | 282 | 0.0 | 0.9 | 0.00 | 0.00 | 0.00 | 29 | 1010.5 |